Location: Beaver Brook Trail
(44.0290°N, 71.8137°W)
Time: 12:12:11
(UTC+00:00)

Tiros 1 despin weight - Visible Passes

Search period start: 12 December 2025 00:00
Search period end: 22 December 2025 00:00
Orbit: 558 x 596 km, 48.2° (Epoch: 12 December)

Date Brightness Start Highest point End Pass type
(mag) Time Alt. Az. Time Alt. Az. Time Alt. Az.
12 Dec ? 23:11:55 10° WSW 23:16:14 79° NNW 23:16:38 70° NE visible
13 Dec ? 21:34:46 10° SW 21:38:52 42° SE 21:42:55 10° ENE visible
13 Dec ? 23:15:09 10° W 23:19:25 63° NNW 23:19:42 61° N visible
14 Dec ? 21:37:37 10° SW 21:41:54 61° SSE 21:46:08 10° ENE visible
14 Dec ? 23:18:24 10° W 23:22:38 54° N 23:22:43 53° N visible
15 Dec ? 21:40:38 10° WSW 21:44:58 84° SSE 21:49:16 10° ENE visible
15 Dec ? 23:21:39 10° W 23:25:43 48° NNW 23:25:43 48° NNW visible
16 Dec ? 21:43:45 10° WSW 21:48:06 76° NNW 21:52:23 10° ENE visible
16 Dec ? 23:24:54 10° WNW 23:28:41 46° NNW 23:28:41 46° NNW visible
17 Dec ? 21:46:56 10° W 21:51:14 61° NNW 21:55:28 10° ENE visible
17 Dec ? 23:28:05 10° WNW 23:31:40 45° NNW 23:31:40 45° NNW visible
18 Dec ? 21:50:08 10° W 21:54:23 53° N 21:58:28 11° ENE visible
18 Dec ? 23:31:13 10° WNW 23:34:40 46° NNW 23:34:40 46° NNW visible
19 Dec ? 21:53:20 10° W 21:57:34 48° N 22:01:29 11° ENE visible
19 Dec ? 23:34:19 10° WNW 23:37:41 49° NW 23:37:41 49° NW visible
20 Dec ? 21:56:31 10° WNW 22:00:43 47° N 22:04:32 12° ENE visible
20 Dec ? 23:37:22 10° WNW 23:40:45 53° NW 23:40:45 53° NW visible
21 Dec ? 21:59:39 10° WNW 22:03:52 49° N 22:07:40 12° E visible
21 Dec ? 23:40:25 10° WNW 23:43:53 56° W 23:43:53 56° W visible
